Port Aransas, TX

6:36 PM CST on February 13, 2016 (GMT -0600)
Port Aransas

Weather History for KRAS - November, 2013

Change the Weather History Date:

Wednesday, November 6, 2013

  Actual Average (KCRP) Record (KCRP)
Temperature  
Mean Temperature 70 °F 69 °F  
Max Temperature 81 °F 79 °F 94 °F (1963)
Min Temperature 59 °F 59 °F 40 °F (1951)
Degree Days  
Heating Degree Days 0 2  
Month to date heating degree days 7  
Since 1 July heating degree days 17  
Cooling Degree Days 6 6  
Month to date cooling degree days 37  
Year to date cooling degree days 3388  
Growing Degree Days 20 (Base 50)    
Moisture  
Dew Point 68 °F    
Average Humidity 85    
Maximum Humidity 95    
Minimum Humidity 70    
Precipitation  
Precipitation 0.11 in 0.08 in 2.81 in (1892)
Month to date precipitation 0.52  
Year to date precipitation 28.48  
Snow  
Snow 0.00 in - - ()
Month to date snowfall  
Since 1 July snowfall  
Since 1 September snowfall  
Snow Depth -    
Sea Level Pressure  
Sea Level Pressure 30.06 in    
Wind  
Wind Speed 8 mph (ESE)    
Max Wind Speed 28 mph    
Max Gust Speed 34 mph    
Visibility 9 miles    
Events Rain , Thunderstorm    
T = Trace of Precipitation, MM = Missing Value Source: NWS Daily Summary

Daily Weather History Graph

Daily Weather History Graph

Search for Another Location

Airport or City:

Trip Planner

Search our weather history database for the weather conditions in past years. The results will help you decide how hot, cold, wet, or windy it might be!

Date:

Astronomy

Nov. 06, 2013 Rise Set
Actual Time 6:43 AM CST 5:40 PM CST
Civil Twilight 6:18 AM CST 6:04 PM CST
Nautical Twilight 5:50 AM CST 6:32 PM CST
Astronomical Twilight 5:23 AM CST 7:00 PM CST
Moon 9:52 AM CST (11/6) 8:52 PM CST (11/6)
Length of Visible Light 11h 46m
Length of Day
10h 57m
Waxing Crescent, 14% of the Moon is Illuminated
Nov 6
Waxing Crescent
Nov 9
First Quarter
Nov 17
Full
Nov 25
Last Quarter
Dec 2
New

Hourly Weather History & Observations

Time (CST) Temp. Heat Index Dew Point Humidity Pressure Visibility Wind Dir Wind Speed Gust Speed Precip Events Conditions
12:35 AM 75.2 °F - 72.0 °F 90% 29.98 in 7.0 mi SSE 5.8 mph - N/A   Overcast
12:55 AM 75.4 °F - 72.0 °F 89% 29.98 in 7.0 mi SSE 5.8 mph - N/A   Overcast
1:15 AM 75.4 °F - 71.8 °F 89% 29.98 in 7.0 mi South 3.5 mph - N/A   Overcast
1:35 AM 75.4 °F - 72.0 °F 89% 29.97 in 7.0 mi SSE 3.5 mph - N/A   Overcast
1:55 AM 75.4 °F - 72.1 °F 90% 29.97 in 7.0 mi SSE 4.6 mph - N/A   Overcast
2:15 AM 75.2 °F - 72.1 °F 90% 29.96 in 10.0 mi SSE 3.5 mph - N/A   Overcast
2:35 AM 74.8 °F - 72.1 °F 91% 29.96 in 7.0 mi SSE 3.5 mph - N/A   Overcast
2:55 AM 74.8 °F - 72.5 °F 92% 29.96 in 7.0 mi South 3.5 mph - N/A   Overcast
3:15 AM 74.7 °F - 72.5 °F 93% 29.96 in 7.0 mi Calm Calm - N/A   Overcast
3:35 AM 74.3 °F - 72.1 °F 93% 29.96 in 5.0 mi SSE 3.5 mph - N/A   Overcast
3:55 AM 74.5 °F - 72.5 °F 94% 29.96 in 7.0 mi South 4.6 mph - N/A   Mostly Cloudy
4:15 AM 74.7 °F - 72.5 °F 93% 29.97 in 10.0 mi SSE 6.9 mph - N/A   Mostly Cloudy
4:35 AM 74.8 °F - 72.5 °F 92% 29.97 in 10.0 mi South 5.8 mph - N/A   Mostly Cloudy
4:55 AM 74.7 °F - 72.1 °F 92% 29.96 in 10.0 mi SSE 4.6 mph - N/A   Scattered Clouds
5:15 AM 74.3 °F - 72.0 °F 92% 29.97 in 7.0 mi South 3.5 mph - N/A   Clear
5:35 AM 73.6 °F - 71.6 °F 93% 29.97 in 7.0 mi South 3.5 mph - N/A   Scattered Clouds
5:55 AM 73.6 °F - 71.8 °F 94% 29.98 in 7.0 mi South 3.5 mph - N/A   Clear
6:15 AM 73.8 °F - 72.0 °F 94% 29.98 in 7.0 mi SSE 3.5 mph - N/A   Clear
6:35 AM 73.6 °F - 71.8 °F 94% 29.99 in 7.0 mi SSE 3.5 mph - N/A   Clear
6:55 AM 73.2 °F - 71.6 °F 95% 29.99 in 4.0 mi SSE 4.6 mph - N/A   Clear
7:15 AM 73.8 °F - 72.1 °F 95% 30.00 in 4.0 mi SSE 4.6 mph - N/A   Clear
7:35 AM 74.8 °F - 72.9 °F 94% 30.00 in 5.0 mi SSE 4.6 mph - N/A   Clear
7:55 AM 76.1 °F - 73.4 °F 91% 30.01 in 7.0 mi SSE 5.8 mph - N/A   Clear
8:15 AM 76.6 °F - 73.0 °F 89% 30.01 in 7.0 mi SSE 4.6 mph - N/A   Scattered Clouds
8:35 AM - - - N/A% - - North - - N/A   Unknown
8:55 AM - - - N/A% - - North - - N/A   Unknown
9:15 AM 79.0 °F - 72.5 °F 80% 30.05 in - South 5.8 mph - N/A Thunderstorm Thunderstorm
9:35 AM 79.2 °F - 72.0 °F 78% 30.05 in 10.0 mi SSE 5.8 mph - N/A   Clear
9:55 AM 78.3 °F - 71.8 °F 80% 30.06 in 10.0 mi SSE 4.6 mph - N/A   Clear
10:15 AM 78.6 °F - 71.8 °F 79% 30.06 in 10.0 mi South 4.6 mph - N/A   Clear
10:35 AM 78.1 °F - 71.6 °F 80% 30.06 in 10.0 mi SE 3.5 mph - N/A   Clear
10:55 AM 77.9 °F - 71.1 °F 79% 30.07 in 10.0 mi SSE 3.5 mph - N/A   Mostly Cloudy
11:15 AM 78.8 °F - 71.4 °F 78% 30.06 in 10.0 mi South 4.6 mph - N/A   Mostly Cloudy
11:35 AM 79.0 °F - 71.2 °F 77% 30.06 in 10.0 mi SSE 3.5 mph - N/A   Scattered Clouds
11:55 AM 80.1 °F 83.4 °F 70.9 °F 73% 30.06 in 10.0 mi Calm Calm - N/A   Scattered Clouds
12:15 PM 81.1 °F 84.9 °F 70.7 °F 70% 30.05 in 10.0 mi South 3.5 mph - N/A   Scattered Clouds
12:35 PM 81.9 °F 86.2 °F 71.4 °F 70% 30.04 in 10.0 mi ESE 5.8 mph - N/A   Scattered Clouds
12:55 PM 80.1 °F 83.4 °F 70.9 °F 73% 30.04 in 10.0 mi ESE 6.9 mph - N/A   Clear
1:15 PM 80.8 °F 84.7 °F 71.6 °F 73% 30.03 in 10.0 mi ESE 8.1 mph - N/A   Clear
1:35 PM 79.5 °F - 71.6 °F 77% 30.03 in 10.0 mi East 6.9 mph - N/A   Clear
1:55 PM 80.6 °F 84.7 °F 72.0 °F 75% 30.02 in 10.0 mi East 9.2 mph - N/A   Clear
2:15 PM 80.8 °F 85.2 °F 72.5 °F 76% 30.01 in 10.0 mi East 9.2 mph - N/A   Clear
2:35 PM 80.1 °F 84.1 °F 72.7 °F 78% 30.02 in 10.0 mi East 8.1 mph - N/A   Clear
2:55 PM 79.9 °F - 72.5 °F 78% 30.02 in 10.0 mi East 6.9 mph - N/A   Clear
3:15 PM 79.9 °F - 72.0 °F 77% 30.01 in 10.0 mi East 8.1 mph - N/A   Clear
3:35 PM 79.7 °F - 71.8 °F 77% 30.01 in 10.0 mi East 6.9 mph - N/A   Clear
3:55 PM 79.0 °F - 71.6 °F 78% 30.03 in 10.0 mi ENE 6.9 mph - N/A   Mostly Cloudy
4:15 PM 75.2 °F - 68.4 °F 79% 30.05 in 10.0 mi North 24.2 mph 29.9 mph N/A   Overcast
4:35 PM 72.0 °F - 68.2 °F 88% 30.06 in 7.0 mi North 20.7 mph 32.2 mph N/A Rain Light Rain
4:55 PM 70.3 °F - 67.8 °F 92% 30.07 in 10.0 mi NNE 25.3 mph 34.5 mph N/A   Overcast
5:15 PM 70.0 °F - 67.6 °F 92% 30.09 in 7.0 mi NNE 23.0 mph 28.8 mph N/A Rain Light Rain
5:35 PM 69.3 °F - 67.1 °F 93% 30.10 in 7.0 mi North 19.6 mph 26.5 mph 0.02 in Rain Light Rain
5:55 PM 68.9 °F - 66.4 °F 92% 30.11 in 7.0 mi North 19.6 mph 27.6 mph 0.03 in Rain Rain
6:15 PM 68.0 °F - 65.7 °F 92% 30.11 in 7.0 mi NNE 23.0 mph 27.6 mph 0.01 in Rain Rain
6:35 PM 67.1 °F - 64.8 °F 92% 30.12 in 5.0 mi NNE 24.2 mph 29.9 mph 0.04 in Rain Rain
6:55 PM 66.4 °F - 64.4 °F 93% 30.13 in 7.0 mi NNE 25.3 mph 29.9 mph 0.07 in Rain Rain
7:15 PM 65.8 °F - 63.5 °F 92% 30.14 in 10.0 mi NNE 24.2 mph 29.9 mph N/A Rain Light Rain
7:35 PM 65.3 °F - 61.9 °F 89% 30.15 in 10.0 mi NNE 26.5 mph 34.5 mph 0.01 in Rain Light Rain
7:55 PM 65.8 °F - 62.6 °F 89% 30.15 in 10.0 mi NNE 20.7 mph 33.4 mph 0.01 in   Light Drizzle
8:15 PM 65.7 °F - 61.9 °F 88% 30.16 in 10.0 mi North 24.2 mph 28.8 mph N/A   Overcast
8:35 PM 64.9 °F - 60.8 °F 86% 30.17 in 10.0 mi North 24.2 mph 29.9 mph N/A   Overcast
8:55 PM 64.4 °F - 60.1 °F 86% 30.18 in 10.0 mi North 25.3 mph 31.1 mph N/A   Overcast
9:15 PM 63.5 °F - 58.5 °F 84% 30.19 in 10.0 mi North 20.7 mph 28.8 mph N/A   Overcast
9:35 PM 62.6 °F - 57.6 °F 84% 30.20 in 10.0 mi North 19.6 mph 26.5 mph N/A   Overcast
9:55 PM 61.7 °F - 55.9 °F 81% 30.21 in 10.0 mi NNE 23.0 mph 31.1 mph N/A   Overcast
10:15 PM 61.2 °F - 55.4 °F 81% 30.20 in 10.0 mi North 25.3 mph 32.2 mph N/A   Overcast
10:35 PM 60.8 °F - 55.0 °F 81% 30.22 in 10.0 mi North 20.7 mph 28.8 mph N/A   Scattered Clouds
10:55 PM 60.8 °F - 54.1 °F 79% 30.23 in 10.0 mi North 21.9 mph 28.8 mph N/A   Mostly Cloudy
11:15 PM 60.3 °F - 53.1 °F 77% 30.23 in 10.0 mi North 27.6 mph - N/A   Mostly Cloudy
11:35 PM 60.1 °F - 52.3 °F 76% 30.22 in 10.0 mi North 23.0 mph 31.1 mph N/A   Scattered Clouds
11:55 PM 59.9 °F - 52.3 °F 76% 30.22 in 10.0 mi North 25.3 mph 31.1 mph N/A   Scattered Clouds